Weather Roundup
Issued by NWS Springfield, MO

Home | Current Version | Previous Version | Text Only | Print | Product List | Glossary On
Versions: 1 2 3 4 5 6 7 8 9 10 11 12 13 14 15 16 17 18 19 20 21 22 23 24 25 26 27 28 29 30 31 32 33 34 35 36 37 38 39 40 41 42 43 44 45 46 47 48 49 50
000
NZUS99 KSGF 281407
HRRSGF

HOURLY WEATHER
NATIONAL WEATHER SERVICE SPRINGFIELD MO
900 AM CDT MON JUL 28 2014

......SGF CWA......

CITY           SKY/WX    TMP DP  RH WIND       PRES   REMARKS
SPRINGFIELD    SUNNY     70  57  63 N14       30.17S
JOPLIN         SUNNY     71  59  65 N7        30.20R
WEST PLAINS    SUNNY     71  58  63 NW8       30.15S
ROLLA          SUNNY     68  58  70 N9        30.13R
OSAGE BEACH    SUNNY     70  57  64 N7        30.16R
BRANSON        PTSUNNY   72  57  60 N7        30.19R

......SURROUNDING SGF CWA......

CITY           SKY/WX    TMP DP  RH WIND       PRES   REMARKS
CHANUTE        SUNNY     70  60  70 N7        30.22R
PARSONS        SUNNY     73  60  63 N3        30.22R
COFFEYVILLE    SUNNY     70  62  76 N6        30.21R HAZE
EMPORIA        MOSUNNY   69  57  65 N10       30.25R
GROVE OK       SUNNY     72  61  68 NE3       30.20S
ROGERS AR      SUNNY     70  58  65 N9        30.21R
SILOAM SPRINGS SUNNY     72  55  56 NE7       30.21R
HARRISON AR    SUNNY     70  59  68 N6        30.19R
NEAR YELLVILLE SUNNY     72  61  68 N8        30.16R

......KANSAS AND MISSOURI......

CITY           SKY/WX    TMP DP  RH WIND       PRES   REMARKS
KANSAS CTY INT MOSUNNY   67  59  75 N10       30.21R
DOWNTOWN KC    SUNNY     69  59  70 N8        30.20R
COLUMBIA       SUNNY     69  60  73 N14       30.15R
SEDALIA        SUNNY     68  60  75 N10       30.17S
ST JOSEPH      SUNNY     66  60  81 N13       30.22R
ST LOUIS       MOSUNNY   72  62  71 N10       30.10R
SPIRIT OF STL  PTSUNNY   70  60  70 N10       30.09R
KIRKSVILLE     CLOUDY    65  60  84 N8        30.18R
WICHITA        MOSUNNY   72  58  61 NE8       30.27R
TOPEKA         SUNNY     70  59  68 N10       30.24R
OLATHE         SUNNY     68  58  70 N10       30.20S

......TENNESSEE......

CITY           SKY/WX    TMP DP  RH WIND       PRES   REMARKS
MEMPHIS        SUNNY     79  60  52 N7        30.09R
NASHVILLE      SUNNY     75  61  61 NW8       30.02R

......ARKANSAS.......

CITY           SKY/WX    TMP DP  RH WIND       PRES   REMARKS
FAYETTEVILLE   SUNNY     71  58  63 NE3       30.19S
FT SMITH       SUNNY     79  62  56 NE9       30.16R
LITTLE ROCK    MOSUNNY   79  60  52 NE10      30.13R

......OKLAHOMA.......

CITY           SKY/WX    TMP DP  RH WIND       PRES   REMARKS
TULSA          MOSUNNY   75  62  64 CALM      30.19R
PONCA CITY     MOSUNNY   71  62  73 N5        30.23R
MCALESTER      MOSUNNY   78  65  63 VRB7      30.18R
OKLAHOMA CITY  CLOUDY    78  60  53 E9        30.22R

......IOWA............

CITY           SKY/WX    TMP DP  RH WIND       PRES   REMARKS
DES MOINES     MOSUNNY   68  55  63 NE7       30.20R
QUAD CITIES    SUNNY     65  51  60 N12G17    30.13R

......ILLINOIS........

CITY           SKY/WX    TMP DP  RH WIND       PRES   REMARKS
QUINCY         CLOUDY    65  60  84 N10       30.13R
CHICAGO        MOSUNNY   63  47  55 N16       30.05R



USA.gov is the U.S. government's official web portal to all federal, state and local government web resources and services.